TIME,DELAY(SENSOR),PRES,T(CTD),SAL,OXYGEN,RAWTEMP,T(OPTODE),TCPHASE,FLUOR,BETA(BETA700),BETA(BETA412),BETA(BETA440),CDOM,C(CSC),ED(ED411.90),ED(ED443.80),ED(ED489.40),ED(ED554.70),LU(LU412.20),LU(LU443.80),LU(LU489.40),LU(LU555.00),COMP,TILTX,TILTX(TILTY),CHECK
1373384122,5808,497.1499938964844000,17.6002998352050780,36.4682998657226560,216.5345001220703000,168.4324951171875000,17.6003093719482420,31.8485393524169920,51,101,83,78,65,10066,2146960914,2147515812,2147268608,2147453193,2147080740,2146954377,2147651474,2147129499,2673,-1,8,16546
1373384243,5808,486.6199951171875000,17.7171001434326170,36.4868011474609400,216.6069030761718800,164.0041961669922000,17.7339591979980470,31.7837791442871100,51,100,83,78,67,10069,2146958893,2147514633,2147265938,2147456841,2147080502,2146951780,2147654738,2147125988,2471,-1,8,36589
1373384378,5807,475.0599975585937500,17.8097991943359380,36.4992980957031250,217.2310943603515600,161.4467010498047000,17.8111591339111330,31.7160606384277340,51,101,83,77,66,10066,2146958418,2147514139,2147270006,2147454582,2147076955,2146952521,2147647524,2147125339,1905,-1,8,14790
1373384499,5808,464.3200073242187500,17.9118003845214840,36.5191993713378900,218.4004974365234400,158.2846984863281200,17.9066295623779300,31.6109199523925780,51,100,83,78,65,10070,2146958262,2147514852,2147268315,2147451986,2147075309,2146956571,2147649380,2147127972,1845,-1,8,17153
1373384620,5804,453.5799865722656000,17.9673004150390620,36.5289001464843750,219.1381988525390600,156.3708953857422000,17.9644107818603500,31.5459709167480470,52,100,84,78,65,10070,2146960036,2147514916,2147269842,2147451218,2147080384,2146953618,2147650651,2147124315,1105,-1,8,23243
1373384743,5804,442.3699951171875000,18.0280990600585940,36.5387001037597660,219.7545928955078000,154.2261962890625000,18.0291805267334000,31.4846305847167970,50,100,84,78,66,10068,2146958829,2147516425,2147269302,2147453010,2147072256,2146953005,2147648841,2147128246,632,-1,8,51894
1373384864,5804,430.9700012207031000,18.0893993377685550,36.5448989868164060,219.0605926513672000,152.4445953369140600,18.0829906463623050,31.4968891143798830,51,101,84,78,66,10066,2146958473,2147513033,2147267867,2147447926,2147078994,2146951442,2147647798,2147129563,3373,-1,8,25915
1373384977,5804,420.3399963378906000,18.1508007049560550,36.5536003112793000,219.0599060058593800,150.3957061767578000,18.1448898315429700,31.4689693450927730,51,101,82,78,66,10068,2146957714,2147515245,2147268525,2147446848,2147075867,2146952841,2147646921,2147128192,2377,-2,8,50831
1373385098,5804,408.8999938964844000,18.2292995452880860,36.5635986328125000,217.8993988037109400,147.6403961181640600,18.2281303405761720,31.4925308227539060,51,102,83,78,65,10063,2146958948,2147513243,2147266432,2147451702,2147080036,2146953243,2147648530,2147128758,2225,-1,8,47424
1373385208,5807,398.5499877929687500,18.2924995422363280,36.5695991516113300,217.5148010253906200,145.5720977783203000,18.2906208038330080,31.4846992492675780,51,102,83,77,66,10063,2146960210,2147515163,2147266816,2147449344,2147074185,2146955401,2147647981,2147127213,1856,-1,8,38909
1373385332,5807,387.2000122070312500,18.3502998352050780,36.5755004882812500,219.2485961914062500,143.7628936767578000,18.3453006744384770,31.3694992065429700,51,102,83,79,66,10068,2146959286,2147513088,2147267181,2147448658,2147077760,2146951835,2147644772,2147129170,1851,-1,8,8461
1373385453,5805,376.5000000000000000,18.3857994079589840,36.5704002380371100,213.5514068603515600,142.7411956787109400,18.3761806488037100,31.6579494476318360,51,104,83,78,67,10060,2146958537,2147514304,2147265910,2147455241,2147066870,2146962806,2147647241,2147125092,2375,-2,8,33445
1373385588,5806,365.1600036621094000,18.4754009246826170,36.5844001770019500,211.9243011474609400,139.5390930175781200,18.4729804992675780,31.7020893096923830,51,103,83,78,66,10065,2146958518,2147517851,2147268553,2147448374,2147067410,2146954962,2147646976,2147123940,1686,-1,8,56570
1373385720,5804,354.4899902343750000,18.4979991912841800,36.5859985351562500,213.4125061035156200,139.0204925537109400,18.4886608123779300,31.6147499084472660,52,102,83,78,66,10058,2146955584,2147516635,2147267419,2147449161,2147076635,2146954742,2147645833,2147128036,1298,-1,8,51163
1373385852,5804,343.9299926757812500,18.5356006622314450,36.5913009643554700,216.0836944580078000,137.7176971435547000,18.5280494689941400,31.4541206359863280,52,101,84,78,66,10062,2146960164,2147514870,2147268196,2147448365,2147074633,2146955227,2147650477,2147126674,1063,-1,8,4733
1373385997,5806,332.6499938964844000,18.5613002777099600,36.5915985107421900,211.2398071289062500,136.5668029785156200,18.5628509521484380,31.6988792419433600,51,103,82,80,67,10059,2146959030,2147516900,2147266678,2147447588,2147077659,2146954934,2147649984,2147124333,823,-1,8,61774
1373386140,5807,321.7600097656250000,18.6102008819580080,36.5942001342773440,210.0984039306640600,134.9131011962890600,18.6128597259521500,31.7390403747558600,52,103,84,79,67,10062,2146958957,2147514541,2147263469,2147446848,2147076772,2146956150,2147648265,2147125805,278,-2,8,47664
1373386281,5806,310.0000000000000000,18.6844005584716800,36.6022987365722660,215.2920074462890600,132.7042999267578000,18.6796607971191400,31.4285793304443360,51,103,82,78,67,10062,2146954221,2147517467,2147264777,2147446253,2147080457,2146960054,2147646674,2147127616,468,-1,8,13350
1373386400,5806,298.6799926757812500,18.7684993743896500,36.6096000671386700,214.6468048095703000,129.9252014160156200,18.7637405395507800,31.4251708984375000,51,102,82,78,66,10057,2146957760,2147514953,2147265993,2147447606,2147082861,2146958564,2147652105,2147127424,3285,-1,8,17686
1373386513,5805,287.7799987792969000,18.8491992950439450,36.6137008666992200,214.5415039062500000,127.2835006713867200,18.8436698913574220,31.3952407836914060,51,102,83,77,66,10054,2146955812,2147515638,2147266249,2147447424,2147078857,2146959552,2147657746,2147129234,65,-1,8,30735
1373386623,5802,277.3800048828125000,18.9818000793457030,36.6254997253418000,212.7272033691406200,122.8486022949218800,18.9779090881347660,31.4328594207763670,51,101,84,76,67,10057,2146954998,2147516004,2147265810,2147447616,2147080045,2146964013,2147660379,2147127844,2915,-1,8,11322
1373386744,5803,265.8999938964844000,19.1096992492675780,36.6313018798828100,211.3650054931640600,118.3298034667968800,19.1147403717041000,31.4457206726074220,52,102,82,78,66,10050,2146958235,2147516681,2147266422,2147444224,2147078144,2146969133,2147668708,2147127524,3078,-1,8,23285
1373386857,5804,255.4400024414062500,19.2628993988037100,36.6440010070800800,212.4506072998047000,113.2099990844726600,19.2698402404785160,31.3180294036865230,51,102,83,79,66,10050,2146958939,2147516324,2147266093,2147446080,2147082459,2146966985,2147668836,2147127250,1987,-1,8,62163
1373386978,5805,244.6600036621093800,19.4109992980957030,36.6484985351562500,212.0233001708984400,108.2081985473632800,19.4214305877685550,31.2742099761962900,51,102,83,78,66,10053,2146958116,2147514642,2147265289,2147443894,2147082029,2146987721,2147701238,2147130011,1017,-2,8,48660
1373387113,5806,232.8200073242187500,19.4230995178222660,36.6034011840820300,229.0128021240234400,108.2867965698242200,19.4190502166748050,30.4017505645751950,55,105,83,78,64,10044,2146956626,2147516214,2147265033,2147444379,2147084571,2147001718,2147738770,2147136402,3517,-2,8,24800
1373387245,5805,221.6600036621093800,19.6478996276855470,36.6260986328125000,233.2339935302734400,101.0646972656250000,19.6380691528320300,30.1024494171142580,55,104,84,78,64,10039,2146956406,2147515126,2147270144,2147443867,2147085494,2147026349,2147781074,2147137316,2519,-1,8,20930
1373387388,5808,210.3500061035156200,19.7315998077392580,36.6077995300293000,243.5942993164062500,97.7384033203125000,19.7390098571777340,29.5756797790527340,60,105,84,80,64,10035,2146957120,2147517001,2147273956,2147442624,2147091529,2147061824,2147852699,2147139163,2697,-1,9,42717
1373387533,5806,199.4499969482422000,20.1674995422363280,36.6505012512207000,241.3889007568359400,83.8141403198242200,20.1619300842285160,29.4967002868652340,54,102,83,79,64,10048,2146956836,2147518857,2147270107,2147441910,2147095872,2147068534,2147851812,2147140352,2650,-1,8,42601
1373387588,5805,195.4400024414062500,20.2542991638183600,36.6562995910644500,237.4107055664062500,80.9751434326171900,20.2482395172119140,29.6440906524658200,55,102,83,79,64,10047,2146958710,2147520713,2147273270,2147439872,2147100498,2147120740,2147930550,2147147126,2342,-1,8,49630
1373387643,5806,191.4199981689453000,20.2787990570068360,36.6600990295410160,235.5014038085937500,80.2151031494140600,20.2713508605957030,29.7237892150878900,54,103,82,76,65,10056,2146958134,2147523629,2147273526,2147439533,2147110509,2147165677,2147997650,2147150710,2404,-1,8,52510
1373387698,5803,187.3899993896484400,20.3577003479003900,36.6657981872558600,233.8621063232422000,76.7964401245117200,20.3753395080566400,29.7569503784179700,52,102,82,79,64,10050,2146959652,2147519835,2147275090,2147441389,2147113993,2147181156,2148012205,2147151067,2423,-2,8,45041
1373387778,5801,182.1900024414062500,20.4601993560791000,36.6626014709472660,234.1481933593750000,74.2400894165039000,20.4531307220459000,29.7103500366210940,53,103,83,79,65,10047,2146957906,2147518601,2147276617,2147438820,2147116918,2147177307,2147997284,2147148470,2002,-1,9,14703
1373387844,5806,178.4700012207031200,20.5482006072998050,36.6556015014648440,235.2648925781250000,71.1287689208984400,20.5478401184082030,29.6176700592041000,53,102,83,77,64,10049,2146957723,2147521216,2147276315,2147441398,2147122834,2147217280,2148058541,2147153600,1637,-1,9,34088
1373387921,5806,174.3600006103515600,20.6849994659423830,36.6548995971679700,237.0108947753906200,66.7646865844726600,20.6807403564453120,29.4797496795654300,55,104,82,77,63,10043,2146960950,2147524169,2147276086,2147437952,2147132772,2147249938,2148112429,2147155693,1327,-2,9,15140
1373387998,5806,170.5299987792968800,20.7914009094238280,36.6591987609863300,237.6423950195312500,63.3207511901855500,20.7856807708740230,29.4063301086425780,54,103,85,79,63,10051,2146958948,2147522121,2147273718,2147437385,2147125284,2147182820,2147994404,2147148443,626,-1,8,8249
1373388077,5806,166.5000000000000000,20.8701000213623050,36.6553001403808600,236.4506072998047000,60.7644996643066400,20.8636093139648440,29.4291305541992200,54,101,83,79,64,10051,2146960539,2147524626,2147283428,2147439808,2147152137,2147314002,2148189138,2147165668,572,-1,8,15654
1373388154,5806,162.4199981689453000,21.0359992980957030,36.6696014404296900,236.6295013427734400,55.6880912780761700,21.0184307098388670,29.3557701110839840,55,103,83,79,64,10044,2146959725,2147523456,2147278747,2147435382,2147147730,2147270198,2148109284,2147158025,1003,-1,8,24371
1373388231,5806,158.2400054931640600,21.0715999603271500,36.6755981445312500,233.6217956542968800,54.2021484375000000,21.0637702941894530,29.4776496887207030,56,106,84,79,63,10051,2146959561,2147525933,2147283465,2147437577,2147163510,2147317961,2148180480,2147162624,847,-1,8,35681
1373388297,5806,154.5899963378906200,21.1270008087158200,36.6663017272949200,232.2536926269531200,52.3862609863281250,21.1191997528076170,29.5192909240722660,58,105,82,79,63,10041,2146960201,2147529060,2147286710,2147435730,2147196772,2147441307,2148351542,2147172827,184,-2,8,62482
1373388377,5804,150.4799957275390600,21.2140007019042970,36.6609992980957000,233.4322967529297000,49.5270004272460940,21.2064895629882800,29.4266395568847660,60,108,82,78,62,10042,2146960329,2147530569,2147293110,2147436845,2147224027,2147513526,2148450569,2147179986,2513,-1,9,32715
1373388454,5806,146.6699981689453000,21.2127990722656250,36.6523017883300800,235.5189056396484400,49.3695411682128900,21.2112998962402340,29.3267707824707030,60,106,83,79,62,10043,2146962742,2147528274,2147287524,2147435885,2147217408,2147454573,2148335003,2147173549,2424,-2,9,63962
1373388542,5805,143.2100067138672000,21.4081993103027340,36.6397018432617200,236.8428955078125000,44.8732795715332000,21.3486595153808600,29.2078609466552730,68,111,83,79,63,10031,2146963666,2147532342,2147289609,2147435693,2147252918,2147557723,2148473298,2147181376,2845,-1,9,51988
1373388699,5804,138.7799987792968800,21.5916996002197270,36.6432991027832000,234.0563049316406200,36.8268699645996100,21.5946998596191400,29.2353992462158200,75,112,84,80,63,10024,2146961618,2147534793,2147295488,2147436699,2147313371,2147713060,2148692443,2147193170,3185,-1,8,47641
1373388809,5804,134.9199981689453000,21.8097991943359380,36.6487998962402340,235.4779052734375000,30.1719799041748050,21.7984294891357420,29.0843505859375000,82,113,86,82,62,10009,2146963337,2147536018,2147299081,2147431085,2147327890,2147721792,2148679341,2147195236,1751,-2,9,11619
1373388919,5808,130.9499969482422000,21.8740005493164060,36.6491012573242200,235.8074951171875000,28.0024299621582030,21.8648891448974600,29.0416603088378900,85,114,83,79,64,10009,2146968850,2147542921,2147310756,2147432484,2147413814,2147924068,2148949458,2147217234,1851,-1,9,20872
1373389015,5805,126.7099990844726600,21.9256992340087900,36.6006011962890600,239.1526031494140600,26.2056198120117200,21.9199504852294920,28.8651695251464840,84,114,84,80,62,10001,2146975259,2147548608,2147314825,2147433993,2147505133,2148095433,2149155126,2147232557,2114,-1,9,26699
1373389103,5807,122.4000015258789000,22.0272006988525400,36.5889015197753900,243.0267944335937500,23.4298591613769530,22.0050506591796880,28.6552295684814450,84,115,85,81,61,9987,2146981129,2147555355,2147327442,2147432667,2147646994,2148382418,2149484242,2147260315,1703,-1,8,14029
1373389191,5808,118.6900024414062500,22.0797004699707030,36.5541992187500000,250.7993927001953000,20.9272003173828120,22.0818004608154300,28.2831497192382800,79,112,84,81,61,9997,2146983451,2147567680,2147344018,2147432932,2147808786,2148682752,2149834377,2147286765,910,-2,9,13575
1373389293,5806,114.8899993896484400,22.4839000701904300,36.5611991882324200,251.8316040039062500,9.0295934677124020,22.4471607208251950,28.0911693572998050,81,121,84,82,61,9978,2147004781,2147606857,2147404288,2147437138,2148399094,2149974208,2151462354,2147411172,887,-1,9,45625
1373389631,5805,111.1500015258789000,22.8458995819091800,36.5956001281738300,243.8766937255859400,-3.5921490192413330,22.8356094360351560,28.2798099517822270,113,127,87,82,61,9956,2147002907,2147604653,2147403913,2147433590,2148431424,2149925769,2151438281,2147414189,1340,-2,9,39422
1373389796,5804,107.6699981689453100,23.0447998046875000,36.5214996337890600,249.9772033691406200,-9.6227283477783200,23.0215301513671880,27.9396991729736330,110,137,88,85,61,9931,2147021385,2147626870,2147441188,2147435456,2148800182,2150555538,2152304356,2147490276,1297,-1,9,59731
1373390001,5805,102.8799972534179700,23.5534000396728500,36.5526008605957000,251.5321044921875000,-25.8630790710449220,23.5233097076416000,27.6735897064209000,106,132,87,84,62,9929,2147055360,2147686006,2147532653,2147437412,2149809106,2152351561,2154592941,2147698514,1725,-1,9,1828
1373390122,5809,99.1999969482421900,23.6345996856689450,36.5452003479003900,251.2086029052734400,-29.1136608123779300,23.6239395141601560,27.6473102569580080,115,128,86,83,65,9912,2147061138,2147695707,2147538797,2147432713,2149978249,2152533366,2154764297,2147726957,1773,-1,9,12972
1373390218,5807,96.6100006103515600,23.7656993865966800,36.5447006225585940,248.4465026855468800,-33.4248313903808600,23.7575092315673830,27.7123298645019530,116,131,86,86,63,9912,2147069284,2147703213,2147550939,2147436150,2150185197,2152771227,2154941284,2147757494,1687,-1,9,62287
1373390273,5805,94.6500015258789000,23.8055000305175780,36.5265998840332000,248.3554992675781200,-34.7581291198730500,23.7988491058349600,27.6998405456542970,108,129,88,84,63,9918,2147076937,2147715254,2147565513,2147435931,2150327542,2152913142,2154979501,2147770157,1321,-1,8,34952
1373390328,5806,92.7600021362304700,23.8652992248535160,36.5200996398925800,248.8768005371093800,-36.7434692382812500,23.8604202270507800,27.6530799865722660,103,126,86,83,63,9928,2147087186,2147725494,2147575853,2147436544,2150601261,2153287835,2155270491,2147801472,1160,-2,9,25910
1373390383,5806,90.9800033569336000,23.9018993377685550,36.5083007812500000,247.4396057128906200,-37.9328918457031250,23.8973197937011720,27.7000102996826170,104,128,88,83,63,9919,2147115172,2147765805,2147626230,2147441344,2151249837,2154344886,2156374198,2147911021,688,-1,9,26053
1373390438,5806,89.0999984741211000,23.9757995605468750,36.5005989074707000,247.5502929687500000,-40.0420494079589840,23.9627704620361330,27.6694602966308600,105,124,86,83,64,9927,2147123465,2147777371,2147635410,2147439168,2151526738,2154695872,2156567314,2147939876,435,-1,9,2791
1373390522,5801,85.9300003051757800,24.3257999420166000,36.4370002746582000,254.5164947509765600,-50.0302391052246100,24.2731494903564450,27.2532291412353500,78,122,85,83,63,9936,2147160658,2147820004,2147670665,2147444013,2152231963,2155643885,2157269065,2148021906,537,-1,9,1606
1373390577,5803,84.0400009155273400,24.4671001434326170,36.4142990112304700,256.4783020019531000,-55.6755905151367200,24.4488906860351560,27.1037902832031250,74,117,84,84,63,9952,2147197046,2147869915,2147726966,2147443931,2153160804,2157111926,2158698688,2148160521,1194,-1,9,63217
1373390654,5802,82.4300003051757800,24.5632991790771500,36.3987007141113300,260.2301025390625000,-58.5593490600585940,24.5387401580810550,26.9160499572753900,73,118,84,83,61,9958,2147216347,2147898386,2147746669,2147446427,2153696283,2157868233,2159279414,2148221046,1525,-1,9,18437
1373390827,5803,79.9000015258789000,24.7625999450683600,36.4000015258789060,271.0190124511719000,-65.3517227172851600,24.7506294250488280,26.4095497131347660,70,122,86,83,61,9961,2147258112,2147946358,2147785060,2147448228,2154596745,2158904640,2159801526,2148278674,985,-1,8,5963
1373390882,5805,77.9899978637695300,24.7191009521484380,36.3605995178222660,268.6600952148437500,-64.3272399902343800,24.7186508178710940,26.5129508972167970,70,118,86,82,60,9960,2147280969,2147972342,2147796909,2147449334,2155256621,2159645485,2160181988,2148318546,692,-2,8,57616
1373390937,5803,75.9100036621093800,24.7835006713867200,36.3305015563964840,267.1593933105469000,-66.0619888305664000,24.7728004455566400,26.5506191253662100,66,122,86,83,61,9959,2147304795,2147997074,2147805458,2147448155,2155804224,2160261110,2160476105,2148357440,298,-1,8,24809
1373390992,5807,73.9100036621093800,24.9136009216308600,36.3548011779785160,267.3817138671875000,-70.0114364624023400,24.8961791992187500,26.4946002960205080,66,122,86,84,61,9956,2147371840,2148072521,2147880758,2147453568,2157430427,2162532352,2162485549,2148561590,2656,-1,9,28419
1373391047,5803,72.1399993896484400,24.9237995147705080,36.3568992614746100,272.0118103027344000,-70.6806030273437500,24.9170894622802730,26.3079395294189450,67,122,87,83,61,9958,2147522258,2148277449,2148105170,2147463698,2161318966,2168339419,2168055469,2149128484,2009,-2,9,37710
1373391131,5803,68.9700012207031200,25.0769996643066400,36.3308982849121100,281.7932128906250000,-75.7869033813476600,25.0768108367919920,25.8813304901123050,65,123,86,84,60,9955,2147735844,2148544786,2148388489,2147489499,2166960987,2176139702,2174892946,2149855853,1188,-2,9,25893
1373391186,5805,66.7200012207031200,25.2467002868652340,36.3163986206054700,291.9782104492187500,-80.6056365966796900,25.2277107238769530,25.4592990875244140,64,121,86,83,61,9954,2148015049,2148889453,2148751981,2147518729,2174165723,2186162971,2183741750,2150790720,1078,-1,9,37937
1373391241,5807,65.2200012207031200,25.4055004119873050,36.3427009582519500,315.1809082031250000,-85.7325973510742200,25.3884601593017580,24.6196594238281250,64,122,86,83,62,9952,2148118006,2149001270,2148837531,2147526390,2176589184,2189061302,2185715766,2151003657,606,-1,9,19620
1373391329,5804,63.6300010681152340,25.5365009307861330,36.3288002014160160,322.6094970703125000,-89.6821365356445300,25.5124397277832030,24.3383598327636720,63,120,86,84,60,9949,2148116498,2148953142,2148711442,2147513499,2176475126,2187815515,2183618916,2150756982,3181,-1,9,12928
1373391458,5804,61.1800003051757800,25.7549991607666000,36.3069992065429700,321.2933959960937500,-97.1913909912109400,25.7484893798828120,24.2933502197265620,61,117,86,84,60,9959,2148164589,2148961782,2148659666,2147507446,2177196909,2187392996,2181784073,2150596681,3341,-1,9,12532
1373391524,5805,59.0000000000000000,25.9549999237060550,36.2916984558105500,318.1174011230469000,-103.1108016967773400,25.9349002838134770,24.3257102966308600,61,118,85,83,59,9958,2148555520,2149395428,2149055268,2147538194,2187397595,2200373796,2192294070,2151738605,3288,-1,9,205
1373391579,5803,57.2900009155273440,26.1515998840332030,36.2145004272460940,352.6177978515625000,-109.1810989379882800,26.1263504028320300,23.2241096496582030,60,118,85,83,60,9959,2148608128,2149436964,2149066240,2147540626,2188795931,2201492022,2192706916,2151859602,3146,-1,8,64416
1373391762,5808,55.2299995422363300,26.2928009033203120,36.1899986267089840,372.5401000976562500,-113.9173965454101600,26.2759494781494140,22.6248893737792970,59,117,85,84,57,9958,2148400091,2149137152,2148748580,2147517878,2182867227,2192237842,2183946066,2150972416,1690,-1,9,44252
1373391916,5803,53.4399986267089840,26.3208007812500000,36.1939010620117200,411.9501037597656000,-115.5141983032226600,26.3264293670654300,21.6151790618896500,58,119,86,84,56,9938,2148894290,2149666925,2149223396,2147560064,2195859254,2207851364,2196057069,2152353526,1383,-1,9,41195
1373392051,5803,50.9599990844726560,26.3390007019042970,36.1819000244140600,387.0676879882812500,-116.2442016601562500,26.3495101928710940,22.2207107543945300,59,116,83,82,59,9938,2149716260,2150519734,2149950052,2147629092,2218102290,2234052918,2215988315,2154755693,198,-2,8,48087
1373392084,5805,49.5999984741210940,26.4428997039794920,36.1474990844726560,371.0310058593750000,-119.3787002563476600,26.4486808776855470,22.6041507720947270,61,119,84,82,58,9934,2150086198,2150888749,2150231689,2147646381,2227239323,2244613321,2223852342,2155712960,3290,-2,9,59091
1373392129,5801,47.6899986267089840,26.5795993804931640,36.1237983703613300,374.5397949218750000,-123.6479034423828100,26.5839004516601560,22.4634895324707030,60,112,84,82,58,9935,2150394541,2151161133,2150435364,2147665444,2236285129,2254202998,2230762569,2156741696,2403,-1,9,61557
1373392186,5806,45.8600006103515600,26.6515007019042970,36.1116981506347660,383.9866943359375000,-125.9551010131836000,26.6570396423339840,22.1918506622314450,59,113,83,82,58,9937,2150752502,2151501878,2150711725,2147702646,2245166646,2263524077,2237161024,2157682907,3055,-2,9,43931
1373392291,5806,43.8699989318847660,26.9360008239746100,36.0702018737793000,380.4836120605469000,-134.5063934326172000,26.9285297393798830,22.1873207092285160,59,112,84,83,61,9934,2151141641,2151867977,2151001371,2147733476,2256438070,2275454262,2245470436,2158812982,2942,-2,9,26556
1373392437,5805,41.7299995422363300,27.0841999053955080,36.0466995239257800,418.4881896972656000,-139.3509979248047000,27.0826301574707030,21.1995506286621100,58,111,84,80,60,9938,2151527716,2152194642,2151207021,2147760484,2267712292,2286271954,2252416722,2160162441,2176,-2,9,24940
1373392518,5801,39.7599983215332000,27.1921997070312500,36.0471992492675800,433.8833007812500000,-142.6296997070312500,27.1870403289794920,20.8108406066894530,57,114,85,81,56,9941,2150796827,2151376027,2150507739,2147741001,2247885494,2260503506,2231290779,2157713289,1444,-1,9,53138
1373392663,5804,37.2700004577636700,27.2754993438720700,36.0405998229980500,497.9446105957031000,-145.7774963378906200,27.2873802185058600,19.4377899169921880,58,112,83,82,59,9940,2151644397,2152181330,2151125065,2147799789,2271922340,2286402377,2250235977,2160821138,1864,-2,9,5047